This is the latest recevied weather packets stored in our database for station/object KE3HG-2. If no packets are shown the sender has not sent any weather packets the latest 1 day(s).
| Time | Temp. | Humidity | Pressure | Rain* | Wind** | Luminosity | Snow |
|---|---|---|---|---|---|---|---|
| 1778035355 | 21.67° C | 40% | 757.5 hPa | 0 mm | 0.89 m/s, 201° | - | - |
| 1778034422 | 21.67° C | 38% | 757.5 hPa | 0 mm | 1.34 m/s, 196° | - | - |
| 1778033822 | 22.22° C | 38% | 757.5 hPa | 0 mm | 1.34 m/s, 208° | - | - |
| 1778033222 | 22.22° C | 38% | 757.5 hPa | 0 mm | 1.34 m/s, 203° | - | - |
| 1778032295 | 22.22° C | 37% | 757.5 hPa | 0 mm | 0.89 m/s, 194° | - | - |
| 1778031695 | 22.78° C | 36% | 757.5 hPa | 0 mm | 0.89 m/s, 199° | - | - |
| 1778031095 | 22.78° C | 35% | 757.5 hPa | 0 mm | 1.34 m/s, 208° | - | - |
| 1778030158 | 23.33° C | 34% | 757.5 hPa | 0 mm | 0.89 m/s, 205° | - | - |
| 1778029558 | 23.33° C | 33% | 757.5 hPa | 0 mm | 1.34 m/s, 202° | - | - |
| 1778028958 | 23.33° C | 32% | 757.5 hPa | 0 mm | 0.89 m/s, 210° | - | - |
| 1778028027 | 23.89° C | 31% | 757.5 hPa | 0 mm | 0.45 m/s, 208° | - | - |
| 1778027428 | 24.44° C | 30% | 757.5 hPa | 0 mm | 0.89 m/s, 209° | - | - |
| 1778026828 | 24.44° C | 29% | 757.5 hPa | 0 mm | 1.79 m/s, 206° | - | - |
| 1778025905 | 24.44° C | 29% | 757.5 hPa | 0 mm | 1.34 m/s, 208° | - | - |
| 1778025306 | 24.44° C | 29% | 757.5 hPa | 0 mm | 1.79 m/s, 207° | - | - |
| 1778024704 | 25° C | 29% | 757.5 hPa | 0 mm | 1.34 m/s, 207° | - | - |
| 1778023810 | 25° C | 29% | 757.5 hPa | 0 mm | 0.89 m/s, 201° | - | - |
| 1778023210 | 25.56° C | 28% | 757.5 hPa | 0 mm | 1.34 m/s, 206° | - | - |
| 1778022610 | 25.56° C | 28% | 757.5 hPa | 0 mm | 1.79 m/s, 188° | - | - |
| 1778021697 | 26.11° C | 28% | 757.5 hPa | 0 mm | 1.34 m/s, 223° | - | - |
| 1778021096 | 26.11° C | 27% | 757.5 hPa | 0 mm | 1.34 m/s, 216° | - | - |
| 1778020496 | 26.11° C | 27% | 757.5 hPa | 0 mm | 1.34 m/s, 214° | - | - |
| 1778019588 | 26.67° C | 25% | 757.5 hPa | 0 mm | 2.24 m/s, 207° | - | - |
| 1778018988 | 26.67° C | 24% | 757.5 hPa | 0 mm | 1.34 m/s, 206° | - | - |
| 1778018388 | 26.67° C | 24% | 757.5 hPa | 0 mm | 3.58 m/s, 212° | - | - |
* Rain latest hour (hover to see other rain measurements)
** Current wind speed in m/s (hover to see current wind gust speed)